Year,Month,Day,Hour,Minute,Value (Times are PST for temperature in C)
2009,03,12,00,00,-1.10
2009,03,12,00,01,-1.10
2009,03,12,00,02,-1.10
2009,03,12,00,03,-1.10
2009,03,12,00,04,-1.10
2009,03,12,00,05,-1.10
2009,03,12,00,06,-1.00
2009,03,12,00,07,-1.00
2009,03,12,00,08,-1.00
2009,03,12,00,09,-1.00
2009,03,12,00,10,-1.00
2009,03,12,00,11,-1.00
2009,03,12,00,12,-1.00
2009,03,12,00,13,-1.00
2009,03,12,00,14,-1.00
2009,03,12,00,15,-1.00
2009,03,12,00,16,-1.00
2009,03,12,00,17,-1.10
2009,03,12,00,18,-1.10
2009,03,12,00,19,-1.10
2009,03,12,00,20,-1.10
2009,03,12,00,21,-1.10
2009,03,12,00,22,-1.10
2009,03,12,00,23,-1.10
2009,03,12,00,24,-1.20
2009,03,12,00,25,-1.20
2009,03,12,00,26,-1.20
2009,03,12,00,27,-1.20
2009,03,12,00,28,-1.20
2009,03,12,00,29,-1.20
2009,03,12,00,30,-1.20
2009,03,12,00,31,-1.10
2009,03,12,00,32,-1.10
2009,03,12,00,33,-1.10
2009,03,12,00,34,-1.10
2009,03,12,00,35,-1.10
2009,03,12,00,36,-1.10
2009,03,12,00,37,-1.10
2009,03,12,00,38,-1.00
2009,03,12,00,39,-1.00
2009,03,12,00,40,-1.00
2009,03,12,00,41,-1.00
2009,03,12,00,42,-1.00
2009,03,12,00,43,-1.00
2009,03,12,00,44,-1.00
2009,03,12,00,45,-1.00
2009,03,12,00,46,-1.00
2009,03,12,00,47,-1.00
2009,03,12,00,48,-1.00
2009,03,12,00,49,-1.00
2009,03,12,00,50,-1.00
2009,03,12,00,51,-1.00
2009,03,12,00,52,-1.00
2009,03,12,00,53,-1.00
2009,03,12,00,54,-1.00
2009,03,12,00,55,-1.00
2009,03,12,00,56,-1.00
2009,03,12,00,57,-1.00
2009,03,12,00,58,-1.00
2009,03,12,00,59,-1.00
2009,03,12,01,00,-1.00
2009,03,12,01,01,-1.00
2009,03,12,01,02,-1.00
2009,03,12,01,03,-1.00
2009,03,12,01,04,-1.00
2009,03,12,01,05,-1.00
2009,03,12,01,06,-1.00
2009,03,12,01,07,-1.10
2009,03,12,01,08,-1.10
2009,03,12,01,09,-1.10
2009,03,12,01,10,-1.10
2009,03,12,01,11,-1.20
2009,03,12,01,12,-1.20
2009,03,12,01,13,-1.20
2009,03,12,01,14,-1.20
2009,03,12,01,15,-1.20
2009,03,12,01,16,-1.30
2009,03,12,01,17,-1.30
2009,03,12,01,18,-1.30
2009,03,12,01,19,-1.30
2009,03,12,01,20,-1.30
2009,03,12,01,21,-1.30
2009,03,12,01,22,-1.30
2009,03,12,01,23,-1.40
2009,03,12,01,24,-1.40
2009,03,12,01,25,-1.40
2009,03,12,01,26,-1.40
2009,03,12,01,27,-1.40
2009,03,12,01,28,-1.40
2009,03,12,01,29,-1.40
2009,03,12,01,30,-1.50
2009,03,12,01,31,-1.50
2009,03,12,01,32,-1.50
2009,03,12,01,33,-1.60
2009,03,12,01,34,-1.60
2009,03,12,01,35,-1.60
2009,03,12,01,36,-1.60
2009,03,12,01,37,-1.60
2009,03,12,01,38,-1.60
2009,03,12,01,39,-1.60
2009,03,12,01,40,-1.70
2009,03,12,01,41,-1.70
2009,03,12,01,42,-1.70
2009,03,12,01,43,-1.70
2009,03,12,01,44,-1.70
2009,03,12,01,45,-1.70
2009,03,12,01,46,-1.70
2009,03,12,01,47,-1.70
2009,03,12,01,48,-1.70
2009,03,12,01,49,-1.60
2009,03,12,01,50,-1.60
2009,03,12,01,51,-1.60
2009,03,12,01,52,-1.60
2009,03,12,01,53,-1.50
2009,03,12,01,54,-1.50
2009,03,12,01,55,-1.40
2009,03,12,01,56,-1.40
2009,03,12,01,57,-1.40
2009,03,12,01,58,-1.30
2009,03,12,01,59,-1.30
2009,03,12,02,00,-1.30
2009,03,12,02,01,-1.30
2009,03,12,02,02,-1.20
2009,03,12,02,03,-1.20
2009,03,12,02,04,-1.10
2009,03,12,02,05,-1.10
2009,03,12,02,06,-1.00
2009,03,12,02,07,-1.00
2009,03,12,02,08,-0.90
2009,03,12,02,09,-0.90
2009,03,12,02,10,-0.80
2009,03,12,02,11,-0.80
2009,03,12,02,12,-0.80
2009,03,12,02,13,-0.70
2009,03,12,02,14,-0.70
2009,03,12,02,15,-0.70
2009,03,12,02,16,-0.70
2009,03,12,02,17,-0.70
2009,03,12,02,18,-0.70
2009,03,12,04,02,-1.00
2009,03,12,04,03,-1.00
2009,03,12,04,04,-0.90
2009,03,12,04,05,-0.90
2009,03,12,04,06,-0.90
2009,03,12,04,07,-0.90
2009,03,12,04,08,-0.80
2009,03,12,04,09,-0.80
2009,03,12,04,10,-0.80
2009,03,12,04,11,-0.80
2009,03,12,04,12,-0.80
2009,03,12,04,13,-0.80
2009,03,12,04,14,-0.80
2009,03,12,04,15,-0.80
2009,03,12,04,16,-0.80
2009,03,12,04,17,-0.80
2009,03,12,04,18,-0.80
2009,03,12,04,19,-0.80
2009,03,12,04,20,-0.80
2009,03,12,04,21,-0.80
2009,03,12,04,22,-0.80
2009,03,12,04,23,-0.80
2009,03,12,04,24,-0.80
2009,03,12,04,25,-0.80
2009,03,12,04,26,-0.80
2009,03,12,04,27,-0.90
2009,03,12,04,28,-0.90
2009,03,12,04,29,-0.90
2009,03,12,04,30,-0.90
2009,03,12,04,31,-0.90
2009,03,12,04,32,-0.90
2009,03,12,04,33,-0.90
2009,03,12,04,34,-0.90
2009,03,12,04,35,-0.90
2009,03,12,04,36,-0.90
2009,03,12,04,37,-0.90
2009,03,12,04,38,-0.90
2009,03,12,04,39,-0.90
2009,03,12,04,40,-0.90
2009,03,12,04,41,-0.90
2009,03,12,04,42,-0.90
2009,03,12,04,43,-0.90
2009,03,12,04,44,-0.90
2009,03,12,04,45,-0.90
2009,03,12,04,46,-0.90
2009,03,12,04,47,-0.80
2009,03,12,04,48,-0.80
2009,03,12,04,49,-0.80
2009,03,12,04,50,-0.80
2009,03,12,04,51,-0.80
2009,03,12,04,52,-0.80
2009,03,12,04,53,-0.80
2009,03,12,04,54,-0.80
2009,03,12,04,55,-0.80
2009,03,12,04,56,-0.80
2009,03,12,04,57,-0.80
2009,03,12,04,58,-0.80
2009,03,12,04,59,-0.70
2009,03,12,05,00,-0.70
2009,03,12,05,01,-0.70
2009,03,12,05,02,-0.70
2009,03,12,05,03,-0.70
2009,03,12,05,04,-0.70
2009,03,12,05,05,-0.70
2009,03,12,05,06,-0.70
2009,03,12,05,07,-0.70
2009,03,12,05,08,-0.70
2009,03,12,05,09,-0.70
2009,03,12,05,10,-0.70
2009,03,12,05,11,-0.70
2009,03,12,05,12,-0.70
2009,03,12,05,13,-0.70
2009,03,12,05,14,-0.70
2009,03,12,05,15,-0.70
2009,03,12,05,16,-0.70
2009,03,12,05,17,-0.70
2009,03,12,05,18,-0.70
2009,03,12,05,19,-0.70
2009,03,12,05,20,-0.70
2009,03,12,05,21,-0.70
2009,03,12,05,22,-0.70
2009,03,12,05,23,-0.60
2009,03,12,05,24,-0.60
2009,03,12,05,25,-0.70
2009,03,12,05,26,-0.70
2009,03,12,05,27,-0.70
2009,03,12,05,28,-0.70
2009,03,12,05,29,-0.70
2009,03,12,05,30,-0.70
2009,03,12,05,31,-0.70
2009,03,12,05,32,-0.70
2009,03,12,05,33,-0.70
2009,03,12,05,34,-0.70
2009,03,12,05,35,-0.70
2009,03,12,05,36,-0.70
2009,03,12,05,37,-0.60
2009,03,12,05,38,-0.60
2009,03,12,05,39,-0.60
2009,03,12,05,40,-0.60
2009,03,12,05,41,-0.60
2009,03,12,05,42,-0.60
2009,03,12,05,43,-0.60
2009,03,12,05,44,-0.60
2009,03,12,05,45,-0.60
2009,03,12,05,46,-0.60
2009,03,12,05,47,-0.60
2009,03,12,05,48,-0.60
2009,03,12,05,49,-0.60
2009,03,12,05,50,-0.60
2009,03,12,05,51,-0.60
2009,03,12,05,52,-0.60
2009,03,12,05,53,-0.60
2009,03,12,05,54,-0.70
2009,03,12,05,55,-0.70
2009,03,12,05,56,-0.70
2009,03,12,05,57,-0.80
2009,03,12,05,58,-0.80
2009,03,12,05,59,-0.80
2009,03,12,06,00,-0.90
2009,03,12,06,01,-1.00
2009,03,12,06,02,-1.00
2009,03,12,06,03,-1.10
2009,03,12,06,04,-1.10
2009,03,12,06,05,-1.10
2009,03,12,06,06,-1.20
2009,03,12,06,07,-1.20
2009,03,12,06,08,-1.30
2009,03,12,06,09,-1.30
2009,03,12,06,10,-1.30
2009,03,12,06,11,-1.40
2009,03,12,06,12,-1.40
2009,03,12,06,13,-1.40
2009,03,12,06,14,-1.40
2009,03,12,06,15,-1.50
2009,03,12,06,16,-1.50
2009,03,12,06,17,-1.60
2009,03,12,06,18,-1.60
2009,03,12,06,19,-1.70
2009,03,12,06,20,-1.70
2009,03,12,06,21,-1.70
2009,03,12,06,22,-1.70
2009,03,12,06,23,-1.80
2009,03,12,06,24,-1.80
2009,03,12,06,25,-1.80
2009,03,12,06,26,-1.80
2009,03,12,06,27,-1.80
2009,03,12,06,28,-1.90
2009,03,12,06,29,-1.90
2009,03,12,06,30,-1.90
2009,03,12,06,31,-1.90
2009,03,12,06,32,-1.90
2009,03,12,06,33,-1.90
2009,03,12,06,34,-1.90
2009,03,12,06,35,-1.90
2009,03,12,06,36,-1.90
2009,03,12,06,37,-1.90
2009,03,12,06,38,-2.00
2009,03,12,06,39,-1.90
2009,03,12,06,40,-2.00
2009,03,12,06,41,-2.00
2009,03,12,06,42,-2.00
2009,03,12,06,43,-1.90
2009,03,12,06,44,-1.90
2009,03,12,06,45,-1.90
2009,03,12,06,46,-1.90
2009,03,12,06,47,-1.90
2009,03,12,06,48,-1.90
2009,03,12,06,49,-1.90
2009,03,12,06,50,-1.90
2009,03,12,06,51,-1.90
2009,03,12,06,52,-1.90
2009,03,12,06,53,-1.90
2009,03,12,06,54,-1.90
2009,03,12,06,55,-1.90
2009,03,12,06,56,-1.80
2009,03,12,06,57,-1.80
2009,03,12,06,58,-1.80
2009,03,12,06,59,-1.80
2009,03,12,07,00,-1.80
2009,03,12,07,01,-1.80
2009,03,12,07,02,-1.80
2009,03,12,07,03,-1.80
2009,03,12,07,04,-1.80
2009,03,12,07,05,-1.80
2009,03,12,07,06,-1.80
2009,03,12,07,07,-1.70
2009,03,12,07,08,-1.80
2009,03,12,07,09,-1.80
2009,03,12,07,10,-1.80
2009,03,12,07,11,-1.80
2009,03,12,07,12,-1.80
2009,03,12,07,13,-1.80
2009,03,12,07,14,-1.80
2009,03,12,07,15,-1.80
2009,03,12,07,16,-1.80
2009,03,12,07,17,-1.80
2009,03,12,07,18,-1.80
2009,03,12,07,19,-1.80
2009,03,12,07,20,-1.80
2009,03,12,07,21,-1.80
2009,03,12,07,22,-1.80
2009,03,12,07,23,-1.80
2009,03,12,07,24,-1.80
2009,03,12,07,25,-1.80
2009,03,12,07,26,-1.90
2009,03,12,07,27,-1.90
2009,03,12,07,28,-1.90
2009,03,12,07,29,-1.90
2009,03,12,07,30,-1.90
2009,03,12,07,31,-1.90
2009,03,12,07,32,-2.00
2009,03,12,07,33,-2.00
2009,03,12,07,34,-2.00
2009,03,12,07,35,-2.00
2009,03,12,07,36,-2.00
2009,03,12,07,37,-2.10
2009,03,12,07,38,-2.10
2009,03,12,07,39,-2.10
2009,03,12,07,40,-2.10
2009,03,12,07,41,-2.10
2009,03,12,07,42,-2.00
2009,03,12,07,43,-2.00
2009,03,12,07,44,-2.00
2009,03,12,07,45,-2.00
2009,03,12,07,46,-2.00
2009,03,12,07,47,-2.00
2009,03,12,07,48,-1.90
2009,03,12,07,49,-1.90
2009,03,12,07,50,-1.90
2009,03,12,07,51,-1.90
2009,03,12,07,52,-1.90
2009,03,12,07,53,-1.90
2009,03,12,07,54,-1.90
2009,03,12,07,55,-1.90
2009,03,12,07,56,-1.90
2009,03,12,07,57,-1.90
2009,03,12,07,58,-1.90
2009,03,12,07,59,-1.90
2009,03,12,08,00,-1.90
2009,03,12,08,01,-1.90
2009,03,12,08,02,-1.80
2009,03,12,08,03,-1.80
2009,03,12,08,04,-1.80
2009,03,12,08,05,-1.80
2009,03,12,08,06,-1.70
2009,03,12,08,07,-1.70
2009,03,12,08,08,-1.70
2009,03,12,08,09,-1.60
2009,03,12,08,10,-1.60
2009,03,12,08,11,-1.60
2009,03,12,08,12,-1.50
2009,03,12,08,13,-1.50
2009,03,12,08,14,-1.40
2009,03,12,08,15,-1.40
2009,03,12,08,16,-1.40
2009,03,12,08,17,-1.40
2009,03,12,08,18,-1.30
2009,03,12,08,19,-1.30
2009,03,12,08,20,-1.30
2009,03,12,08,21,-1.20
2009,03,12,08,22,-1.20
2009,03,12,08,23,-1.20
2009,03,12,08,24,-1.20
2009,03,12,08,25,-1.10
2009,03,12,08,26,-1.10
2009,03,12,08,27,-1.00
2009,03,12,08,28,-1.00
2009,03,12,08,29,-0.90
2009,03,12,08,30,-0.90
2009,03,12,08,31,-0.90
2009,03,12,08,32,-0.80
2009,03,12,08,33,-0.80
2009,03,12,08,34,-0.80
2009,03,12,08,35,-0.70
2009,03,12,08,36,-0.70
2009,03,12,08,37,-0.70
2009,03,12,08,38,-0.60
2009,03,12,08,39,-0.60
2009,03,12,08,40,-0.60
2009,03,12,08,41,-0.60
2009,03,12,08,42,-0.50
2009,03,12,08,43,-0.50
2009,03,12,08,44,-0.40
2009,03,12,08,45,-0.40
2009,03,12,08,46,-0.40
2009,03,12,08,47,-0.30
2009,03,12,08,48,-0.30
2009,03,12,08,49,-0.30
2009,03,12,08,50,-0.20
2009,03,12,08,51,-0.20
2009,03,12,08,52,-0.20
2009,03,12,08,53,-0.10
2009,03,12,08,54,-0.10
2009,03,12,08,55,-0.10
2009,03,12,08,56,0.00
2009,03,12,08,57,0.00
2009,03,12,08,58,0.10
2009,03,12,08,59,0.10
2009,03,12,09,00,0.20
2009,03,12,09,01,0.20
2009,03,12,09,02,0.30
2009,03,12,09,03,0.30
2009,03,12,09,04,0.40
2009,03,12,09,05,0.40
2009,03,12,09,06,0.50
2009,03,12,09,07,0.50
2009,03,12,09,08,0.60
2009,03,12,09,09,0.60
2009,03,12,09,10,0.70
2009,03,12,09,11,0.70
2009,03,12,09,12,0.70
2009,03,12,09,13,0.80
2009,03,12,09,14,0.80
2009,03,12,09,15,0.90
2009,03,12,09,16,0.90
2009,03,12,09,17,1.00
2009,03,12,09,18,1.00
2009,03,12,09,19,1.10
2009,03,12,09,20,1.30
2009,03,12,09,21,1.30
2009,03,12,09,22,1.40
2009,03,12,09,23,1.50
2009,03,12,09,24,1.60
2009,03,12,09,25,1.60
2009,03,12,09,26,1.70
2009,03,12,09,27,1.80
2009,03,12,09,28,1.90
2009,03,12,09,29,2.00
2009,03,12,09,30,2.10
2009,03,12,09,31,2.10
2009,03,12,09,32,2.20
2009,03,12,09,33,2.20
2009,03,12,09,34,2.30
2009,03,12,09,35,2.30
2009,03,12,09,36,2.30
2009,03,12,09,37,2.40
2009,03,12,09,38,2.50
2009,03,12,09,39,2.60
2009,03,12,09,40,2.70
2009,03,12,09,41,2.80
2009,03,12,09,42,2.90
2009,03,12,09,43,3.00
2009,03,12,09,44,3.10
2009,03,12,09,45,3.20
2009,03,12,09,46,3.30
2009,03,12,09,47,3.30
2009,03,12,09,48,3.40
2009,03,12,09,49,3.40
2009,03,12,09,50,3.50
2009,03,12,09,51,3.60
2009,03,12,09,52,3.60
2009,03,12,09,53,3.70
2009,03,12,09,54,3.80
2009,03,12,09,55,3.80
2009,03,12,09,56,3.90
2009,03,12,09,57,3.90
2009,03,12,09,58,4.00
2009,03,12,09,59,4.00
2009,03,12,10,00,4.10
2009,03,12,10,01,4.10
2009,03,12,10,02,4.10
2009,03,12,10,03,4.20
2009,03,12,10,04,4.20
2009,03,12,10,05,4.20
2009,03,12,10,06,4.20
2009,03,12,10,07,4.20
2009,03,12,10,08,4.20
2009,03,12,10,09,4.20
2009,03,12,10,10,4.20
2009,03,12,10,11,4.20
2009,03,12,10,12,4.20
2009,03,12,10,13,4.20
2009,03,12,10,14,4.20
2009,03,12,10,15,4.10
2009,03,12,10,16,4.10
2009,03,12,10,17,4.10
2009,03,12,10,18,4.10
2009,03,12,10,19,4.10
2009,03,12,10,20,4.10
2009,03,12,10,21,4.10
2009,03,12,10,22,4.10
2009,03,12,10,23,4.10
2009,03,12,10,24,4.20
2009,03,12,10,25,4.10
2009,03,12,10,26,4.10
2009,03,12,10,27,4.10
2009,03,12,10,28,4.20
2009,03,12,10,29,4.20
2009,03,12,10,30,4.20
2009,03,12,10,31,4.20
2009,03,12,10,32,4.30
2009,03,12,10,33,4.40
2009,03,12,10,34,4.40
2009,03,12,10,35,4.50
2009,03,12,10,36,4.50
2009,03,12,10,37,4.60
2009,03,12,10,38,4.70
2009,03,12,10,39,4.70
2009,03,12,10,40,4.70
2009,03,12,10,41,4.80
2009,03,12,10,42,5.00
2009,03,12,10,43,5.10
2009,03,12,10,44,5.20
2009,03,12,10,45,5.20
2009,03,12,10,46,5.20
2009,03,12,10,47,5.20
2009,03,12,10,48,5.20
2009,03,12,10,49,5.20
2009,03,12,10,50,5.20
2009,03,12,10,51,5.20
2009,03,12,10,52,5.10
2009,03,12,10,53,5.10
2009,03,12,10,54,5.10
2009,03,12,10,55,5.10
2009,03,12,10,56,5.10
2009,03,12,10,57,5.10
2009,03,12,10,58,5.10
2009,03,12,10,59,5.10
2009,03,12,11,00,5.10
2009,03,12,11,01,5.10
2009,03,12,11,02,5.20
2009,03,12,11,03,5.20
2009,03,12,11,04,5.30
2009,03,12,11,05,5.40
2009,03,12,11,06,5.40
2009,03,12,11,07,5.50
2009,03,12,11,08,5.60
2009,03,12,11,09,5.60
2009,03,12,11,10,5.60
2009,03,12,11,11,5.60
2009,03,12,11,12,5.60
2009,03,12,11,13,5.60
2009,03,12,11,14,5.70
2009,03,12,11,15,5.70
2009,03,12,11,16,5.70
2009,03,12,11,17,5.70
2009,03,12,11,18,5.70
2009,03,12,11,19,5.70
2009,03,12,11,20,5.70
2009,03,12,11,21,5.80
2009,03,12,11,22,5.80
2009,03,12,11,23,5.80
2009,03,12,11,24,5.90
2009,03,12,11,25,6.00
2009,03,12,11,26,6.00
2009,03,12,11,27,6.10
2009,03,12,11,28,6.10
2009,03,12,11,29,6.10
2009,03,12,11,30,6.10
2009,03,12,11,31,6.20
2009,03,12,11,32,6.10
2009,03,12,11,33,6.10
2009,03,12,11,34,6.00
2009,03,12,11,35,6.00
2009,03,12,11,36,5.90
2009,03,12,11,37,5.90
2009,03,12,11,38,5.80
2009,03,12,11,39,5.80
2009,03,12,11,40,5.80
2009,03,12,11,41,5.80
2009,03,12,11,42,5.70
2009,03,12,11,43,5.70
2009,03,12,11,44,5.70
2009,03,12,11,45,5.70
2009,03,12,11,46,5.70
2009,03,12,11,47,5.60
2009,03,12,11,48,5.60
2009,03,12,11,49,5.70
2009,03,12,11,50,5.70
2009,03,12,11,51,5.80
2009,03,12,11,52,5.80
2009,03,12,11,53,5.80
2009,03,12,11,54,5.80
2009,03,12,11,55,5.80
2009,03,12,11,56,5.80
2009,03,12,11,57,5.80
2009,03,12,11,58,5.80
2009,03,12,11,59,5.80
2009,03,12,12,00,5.80
2009,03,12,12,01,5.80
2009,03,12,12,02,5.80
2009,03,12,12,03,5.80
2009,03,12,12,04,5.80
2009,03,12,12,05,5.80
2009,03,12,12,06,5.90
2009,03,12,12,07,5.90
2009,03,12,12,08,5.90
2009,03,12,12,09,5.90
2009,03,12,12,10,5.80
2009,03,12,12,11,5.60
2009,03,12,12,12,5.50
2009,03,12,12,13,5.40
2009,03,12,12,14,5.40
2009,03,12,12,15,5.40
2009,03,12,12,16,5.50
2009,03,12,12,17,5.50
2009,03,12,12,18,5.60
2009,03,12,12,19,5.60
2009,03,12,12,20,5.60
2009,03,12,12,21,5.60
2009,03,12,12,22,5.60
2009,03,12,12,23,5.70
2009,03,12,12,24,5.80
2009,03,12,12,25,5.80
2009,03,12,12,26,5.80
2009,03,12,12,27,5.90
2009,03,12,12,28,5.90
2009,03,12,12,29,5.90
2009,03,12,12,30,6.00
2009,03,12,12,31,6.00
2009,03,12,12,32,5.90
2009,03,12,12,33,5.80
2009,03,12,12,34,5.80
2009,03,12,12,35,5.80
2009,03,12,12,36,5.90
2009,03,12,12,37,5.90
2009,03,12,12,38,5.90
2009,03,12,12,39,5.90
2009,03,12,12,40,6.00
2009,03,12,12,41,6.00
2009,03,12,12,42,6.10
2009,03,12,12,43,6.10
2009,03,12,12,44,6.20
2009,03,12,12,45,6.20
2009,03,12,12,46,6.20
2009,03,12,12,47,6.20
2009,03,12,12,48,6.10
2009,03,12,12,49,6.00
2009,03,12,12,50,6.00
2009,03,12,12,51,6.10
2009,03,12,12,52,6.10
2009,03,12,12,53,6.20
2009,03,12,12,54,6.20
2009,03,12,12,55,6.20
2009,03,12,12,56,6.30
2009,03,12,12,57,6.20
2009,03,12,12,58,6.10
2009,03,12,12,59,6.00
2009,03,12,13,00,5.90
2009,03,12,13,01,5.90
2009,03,12,13,02,5.80
2009,03,12,13,03,5.90
2009,03,12,13,04,5.90
2009,03,12,13,05,5.80
2009,03,12,13,06,5.80
2009,03,12,13,07,5.90
2009,03,12,13,08,6.00
2009,03,12,13,09,6.10
2009,03,12,13,10,6.20
2009,03,12,13,11,6.20
2009,03,12,13,12,6.30
2009,03,12,13,13,6.50
2009,03,12,13,14,6.60
2009,03,12,13,15,6.60
2009,03,12,13,16,6.70
2009,03,12,13,17,6.80
2009,03,12,13,18,6.90
2009,03,12,13,19,7.00
2009,03,12,13,20,7.10
2009,03,12,13,21,7.10
2009,03,12,13,22,7.20
2009,03,12,13,23,7.20
2009,03,12,13,24,7.20
2009,03,12,13,25,7.10
2009,03,12,13,26,7.10
2009,03,12,13,27,7.00
2009,03,12,13,28,6.90
2009,03,12,13,29,6.90
2009,03,12,13,30,7.00
2009,03,12,13,31,7.00
2009,03,12,13,32,7.10
2009,03,12,13,33,7.20
2009,03,12,13,34,7.20
2009,03,12,13,35,7.20
2009,03,12,13,36,7.20
2009,03,12,13,37,7.20
2009,03,12,13,38,7.20
2009,03,12,13,39,7.10
2009,03,12,13,40,7.00
2009,03,12,13,41,6.90
2009,03,12,13,42,6.80
2009,03,12,13,43,6.70
2009,03,12,13,44,6.60
2009,03,12,13,45,6.60
2009,03,12,13,46,6.60
2009,03,12,13,47,6.60
2009,03,12,13,48,6.60
2009,03,12,13,49,6.70
2009,03,12,13,50,6.70
2009,03,12,13,51,6.80
2009,03,12,13,52,6.70
2009,03,12,13,53,6.70
2009,03,12,13,54,6.70
2009,03,12,13,55,6.50
2009,03,12,13,56,6.40
2009,03,12,13,57,6.40
2009,03,12,13,58,6.40
2009,03,12,13,59,6.40
2009,03,12,14,00,6.50
2009,03,12,14,01,6.40
2009,03,12,14,02,6.40
2009,03,12,14,03,6.40
2009,03,12,14,04,6.40
2009,03,12,14,05,6.50
2009,03,12,14,06,6.50
2009,03,12,14,07,6.60
2009,03,12,14,08,6.60
2009,03,12,14,09,6.60
2009,03,12,14,10,6.50
2009,03,12,14,11,6.50
2009,03,12,14,12,6.50
2009,03,12,14,13,6.40
2009,03,12,14,14,6.40
2009,03,12,14,15,6.40
2009,03,12,14,16,6.40
2009,03,12,14,17,6.50
2009,03,12,14,18,6.50
2009,03,12,14,19,6.50
2009,03,12,14,20,6.60
2009,03,12,14,21,6.60
2009,03,12,14,22,6.60
2009,03,12,14,23,6.50
2009,03,12,14,24,6.50
2009,03,12,14,25,6.50
2009,03,12,14,26,6.60
2009,03,12,14,27,6.70
2009,03,12,14,28,6.80
2009,03,12,14,29,6.90
2009,03,12,14,30,7.00
2009,03,12,14,31,7.10
2009,03,12,14,32,7.10
2009,03,12,14,33,7.10
2009,03,12,14,34,7.00
2009,03,12,14,35,7.00
2009,03,12,14,36,7.00
2009,03,12,14,37,7.00
2009,03,12,14,38,7.10
2009,03,12,14,39,7.10
2009,03,12,14,40,7.10
2009,03,12,14,41,7.10
2009,03,12,14,42,7.10
2009,03,12,14,43,7.10
2009,03,12,14,44,7.10
2009,03,12,14,45,7.10
2009,03,12,14,46,7.10
2009,03,12,14,47,7.10
2009,03,12,14,48,7.10
2009,03,12,14,49,7.10
2009,03,12,14,50,7.10
2009,03,12,14,51,7.10
2009,03,12,14,52,7.10
2009,03,12,14,53,7.10
2009,03,12,14,54,7.10
2009,03,12,14,55,7.10
2009,03,12,14,56,7.20
2009,03,12,14,57,7.20
2009,03,12,14,58,7.20
2009,03,12,14,59,7.20
2009,03,12,15,00,7.20
2009,03,12,15,01,7.20
2009,03,12,15,02,7.20
2009,03,12,15,03,7.20
2009,03,12,15,04,7.20
2009,03,12,15,05,7.20
2009,03,12,15,06,7.20
2009,03,12,15,07,7.20
2009,03,12,15,08,7.30
2009,03,12,15,09,7.30
2009,03,12,15,10,7.30
2009,03,12,15,11,7.30
2009,03,12,15,12,7.30
2009,03,12,15,13,7.40
2009,03,12,15,14,7.40
2009,03,12,15,15,7.50
2009,03,12,15,16,7.50
2009,03,12,15,17,7.60
2009,03,12,15,18,7.50
2009,03,12,15,19,7.50
2009,03,12,15,20,7.40
2009,03,12,15,21,7.50
2009,03,12,15,22,7.50
2009,03,12,15,23,7.60
2009,03,12,15,24,7.70
2009,03,12,15,25,7.70
2009,03,12,15,26,7.70
2009,03,12,15,27,7.70
2009,03,12,15,28,7.70
2009,03,12,15,29,7.70
2009,03,12,15,30,7.70
2009,03,12,15,31,7.70
2009,03,12,15,32,7.70
2009,03,12,15,33,7.60
2009,03,12,15,34,7.50
2009,03,12,15,35,7.50
2009,03,12,15,36,7.60
2009,03,12,15,37,7.60
2009,03,12,15,38,7.70
2009,03,12,15,39,7.70
2009,03,12,15,40,7.80
2009,03,12,15,41,7.80
2009,03,12,15,42,7.80
2009,03,12,15,43,7.80
2009,03,12,15,44,7.80
2009,03,12,15,45,7.80
2009,03,12,15,46,7.80
2009,03,12,15,47,7.90
2009,03,12,15,48,7.90
2009,03,12,15,49,8.00
2009,03,12,15,50,8.10
2009,03,12,15,51,8.10
2009,03,12,15,52,8.20
2009,03,12,15,53,8.20
2009,03,12,15,54,8.20
2009,03,12,15,55,8.10
2009,03,12,15,56,8.10
2009,03,12,15,57,8.10
2009,03,12,15,58,8.10
2009,03,12,15,59,8.10
2009,03,12,16,00,8.10
2009,03,12,16,01,8.10
2009,03,12,16,02,8.10
2009,03,12,16,03,8.10
2009,03,12,16,04,8.10
2009,03,12,16,05,8.10
2009,03,12,16,06,8.10
2009,03,12,16,07,8.10
2009,03,12,16,08,8.10
2009,03,12,16,09,8.10
2009,03,12,16,10,8.20
2009,03,12,16,11,8.20
2009,03,12,16,12,8.20
2009,03,12,16,13,8.20
2009,03,12,16,14,8.20
2009,03,12,16,15,8.20
2009,03,12,16,16,8.20
2009,03,12,16,17,8.20
2009,03,12,16,18,8.20
2009,03,12,16,19,8.20
2009,03,12,16,20,8.20
2009,03,12,16,21,8.20
2009,03,12,16,22,8.20
2009,03,12,16,23,8.20
2009,03,12,16,24,8.30
2009,03,12,16,25,8.30
2009,03,12,16,26,8.40
2009,03,12,16,27,8.50
2009,03,12,16,28,8.50
2009,03,12,16,29,8.60
2009,03,12,16,30,8.60
2009,03,12,16,31,8.60
2009,03,12,16,32,8.50
2009,03,12,16,33,8.40
2009,03,12,16,34,8.30
2009,03,12,16,35,8.20
2009,03,12,16,36,8.10
2009,03,12,16,37,8.00
2009,03,12,16,38,8.00
2009,03,12,16,39,7.90
2009,03,12,16,40,7.90
2009,03,12,16,41,7.80
2009,03,12,16,42,7.80
2009,03,12,16,43,7.70
2009,03,12,16,44,7.70
2009,03,12,16,45,7.70
2009,03,12,16,46,7.70
2009,03,12,16,47,7.70
2009,03,12,16,48,7.70
2009,03,12,16,49,7.70
2009,03,12,16,50,7.70
2009,03,12,16,51,7.70
2009,03,12,16,52,7.70
2009,03,12,16,53,7.70
2009,03,12,16,54,7.60
2009,03,12,16,55,7.60
2009,03,12,16,56,7.60
2009,03,12,16,57,7.60
2009,03,12,16,58,7.60
2009,03,12,16,59,7.60
2009,03,12,17,00,7.60
2009,03,12,17,01,7.60
2009,03,12,17,02,7.60
2009,03,12,17,03,7.60
2009,03,12,17,04,7.60
2009,03,12,17,05,7.60
2009,03,12,17,06,7.60
2009,03,12,17,07,7.60
2009,03,12,17,08,7.70
2009,03,12,17,09,7.70
2009,03,12,17,10,7.60
2009,03,12,17,11,7.60
2009,03,12,17,12,7.70
2009,03,12,17,13,7.70
2009,03,12,17,14,7.60
2009,03,12,17,15,7.60
2009,03,12,17,16,7.60
2009,03,12,17,17,7.60
2009,03,12,17,18,7.50
2009,03,12,17,19,7.50
2009,03,12,17,20,7.50
2009,03,12,17,21,7.40
2009,03,12,17,22,7.40
2009,03,12,17,23,7.30
2009,03,12,17,24,7.30
2009,03,12,17,25,7.30
2009,03,12,17,26,7.20
2009,03,12,17,27,7.20
2009,03,12,17,28,7.20
2009,03,12,17,29,7.20
2009,03,12,17,30,7.20
2009,03,12,17,31,7.20
2009,03,12,17,32,7.20
2009,03,12,17,33,7.20
2009,03,12,17,34,7.10
2009,03,12,17,35,7.10
2009,03,12,17,36,7.00
2009,03,12,17,37,6.90
2009,03,12,17,38,6.90
2009,03,12,17,39,6.80
2009,03,12,17,40,6.70
2009,03,12,17,41,6.60
2009,03,12,17,42,6.60
2009,03,12,17,43,6.50
2009,03,12,17,44,6.40
2009,03,12,17,45,6.30
2009,03,12,17,46,6.30
2009,03,12,17,47,6.20
2009,03,12,17,48,6.20
2009,03,12,17,49,6.10
2009,03,12,17,50,6.00
2009,03,12,17,51,6.00
2009,03,12,17,52,5.90
2009,03,12,17,53,5.90
2009,03,12,17,54,5.80
2009,03,12,17,55,5.80
2009,03,12,17,56,5.80
2009,03,12,17,57,5.70
2009,03,12,17,58,5.70
2009,03,12,17,59,5.70
2009,03,12,18,00,5.60
2009,03,12,18,01,5.60
2009,03,12,18,02,5.60
2009,03,12,18,03,5.60
2009,03,12,18,04,5.50
2009,03,12,18,05,5.50
2009,03,12,18,06,5.40
2009,03,12,18,07,5.40
2009,03,12,18,08,5.30
2009,03,12,18,09,5.30
2009,03,12,18,10,5.30
2009,03,12,18,11,5.20
2009,03,12,18,12,5.20
2009,03,12,18,13,5.10
2009,03,12,18,14,5.10
2009,03,12,18,15,5.10
2009,03,12,18,16,5.00
2009,03,12,18,17,4.90
2009,03,12,18,18,4.90
2009,03,12,18,19,4.90
2009,03,12,18,20,4.90
2009,03,12,18,21,4.90
2009,03,12,18,22,4.90
2009,03,12,18,23,4.80
2009,03,12,18,24,4.80
2009,03,12,18,25,4.80
2009,03,12,18,26,4.80
2009,03,12,18,27,4.80
2009,03,12,18,28,4.70
2009,03,12,18,29,4.70
2009,03,12,18,30,4.70
2009,03,12,18,31,4.70
2009,03,12,18,32,4.60
2009,03,12,18,33,4.60
2009,03,12,18,34,4.50
2009,03,12,18,35,4.50
2009,03,12,18,36,4.40
2009,03,12,18,37,4.40
2009,03,12,18,38,4.30
2009,03,12,18,39,4.30
2009,03,12,18,40,4.30
2009,03,12,18,41,4.30
2009,03,12,18,42,4.20
2009,03,12,18,43,4.20
2009,03,12,18,44,4.20
2009,03,12,18,45,4.10
2009,03,12,18,46,4.10
2009,03,12,18,47,4.10
2009,03,12,18,48,4.00
2009,03,12,18,49,4.00
2009,03,12,18,50,3.90
2009,03,12,18,51,3.90
2009,03,12,18,52,3.80
2009,03,12,18,53,3.80
2009,03,12,18,54,3.80
2009,03,12,18,55,3.70
2009,03,12,18,56,3.70
2009,03,12,18,57,3.70
2009,03,12,18,58,3.60
2009,03,12,18,59,3.60
2009,03,12,19,00,3.60
2009,03,12,19,01,3.50
2009,03,12,19,02,3.50
2009,03,12,19,03,3.40
2009,03,12,19,04,3.40
2009,03,12,19,05,3.40
2009,03,12,19,06,3.30
2009,03,12,19,07,3.30
2009,03,12,19,08,3.20
2009,03,12,19,09,3.20
2009,03,12,19,10,3.20
2009,03,12,19,11,3.20
2009,03,12,19,12,3.20
2009,03,12,19,13,3.10
2009,03,12,19,14,3.10
2009,03,12,19,15,3.10
2009,03,12,19,16,3.10
2009,03,12,19,17,3.00
2009,03,12,19,18,3.00
2009,03,12,19,19,3.00
2009,03,12,19,20,2.90
2009,03,12,19,21,2.90
2009,03,12,19,22,2.90
2009,03,12,19,23,2.90
2009,03,12,19,24,2.90
2009,03,12,19,25,2.80
2009,03,12,19,26,2.80
2009,03,12,19,27,2.80
2009,03,12,19,28,2.80
2009,03,12,19,29,2.80
2009,03,12,19,30,2.70